Location: Unspecified
(43.4354°N, 0.0000°E)
Time: 12:52:08
(UTC+00:00)

Courier 1B - Pass Details

Date: 22 June 2019
Orbit: 962 x 1209 km, 28.3° (Epoch: 16 August)

Event Time Altitude Azimuth Distance (km) Brightness Sun altitude
Rises 20:20:00 0° 245° (WSW) 3,909 11.0 -6.0°
Reaches altitude 10° 20:23:14 10° 233° (SW) 2,993 10.2 -6.4°
Maximum altitude 20:29:01 25° 181° (S) 2,151 9.0 -7.2°
Drops below altitude 10° 20:34:59 10° 130° (SE) 3,109 9.4 -8.0°
Enters shadow 20:35:14 - 129° (SE) 3,174 9.5 -8.0°
Sets 20:38:26 0° 118° (ESE) 4,092 - -8.4°
